This is the latest recevied weather packets stored in our database for station/object EA6AMR-10. If no packets are shown the sender has not sent any weather packets the latest 10 day(s).
| Time | Temp. | Humidity | Pressure | Rain* | Wind** | Luminosity | Snow |
|---|---|---|---|---|---|---|---|
| 1777907680 | 25° C | 61% | 1012.3 hPa | - | - | - | - |
| 1777906780 | 26.11° C | 60% | 1012.4 hPa | - | - | - | - |
| 1777905880 | 24.44° C | 62% | 1012.5 hPa | - | - | - | - |
| 1777904984 | 25° C | 61% | 1012.7 hPa | - | - | - | - |
| 1777904084 | 24.44° C | 61% | 1012.5 hPa | - | - | - | - |
| 1777903184 | 25.56° C | 61% | 1012.7 hPa | - | - | - | - |
| 1777902283 | 26.11° C | 61% | 1012.8 hPa | - | - | - | - |
| 1777901383 | 23.89° C | 65% | 1013 hPa | - | - | - | - |
| 1777900483 | 22.22° C | 65% | 1013.3 hPa | - | - | - | - |
| 1777899583 | 21.67° C | 65% | 1013.2 hPa | - | - | - | - |
| 1777898683 | 22.78° C | 64% | 1013.3 hPa | - | - | - | - |
| 1777897782 | 22.22° C | 64% | 1013.4 hPa | - | - | - | - |
| 1777896882 | 22.22° C | 64% | 1013.4 hPa | - | - | - | - |
| 1777895982 | 22.22° C | 64% | 1013.5 hPa | - | - | - | - |
| 1777895082 | 22.22° C | 64% | 1013.6 hPa | - | - | - | - |
| 1777894182 | 22.22° C | 64% | 1013.6 hPa | - | - | - | - |
| 1777893281 | 21.67° C | 64% | 1013.6 hPa | - | - | - | - |
| 1777892381 | 22.22° C | 63% | 1013.7 hPa | - | - | - | - |
| 1777891481 | 22.78° C | 63% | 1013.6 hPa | - | - | - | - |
| 1777890581 | 22.78° C | 63% | 1013.8 hPa | - | - | - | - |
| 1777889681 | 22.22° C | 63% | 1013.9 hPa | - | - | - | - |
| 1777888780 | 22.22° C | 63% | 1013.9 hPa | - | - | - | - |
| 1777887880 | 22.78° C | 63% | 1013.7 hPa | - | - | - | - |
| 1777886980 | 24.44° C | 62% | 1013.7 hPa | - | - | - | - |
| 1777886080 | 26.67° C | 59% | 1013.5 hPa | - | - | - | - |
* Rain since midnight (hover to see other rain measurements)
** Current wind speed in m/s (hover to see current wind gust speed)